Regional Weather Roundup
Issued by NWS

Home | Current Version | Previous Version | Text Only | Print | Product List | Glossary On
Versions: 1 2 3 4 5 6 7 8 9 10 11 12 13 14 15 16 17 18 19 20 21 22 23 24 25 26 27 28 29 30 31 32 33 34 35 36 37 38 39 40 41 42 43 44 45 46 47 48 49 50
000
ASUS44 KFWD 262001
RWRTX
NORTH TEXAS HOURLY WEATHER ROUNDUP
NATIONAL WEATHER SERVICE FORT WORTH TX
300 PM CDT MON SEP 26 2016

NOTE: "FAIR" INDICATES FEW OR NO CLOUDS BELOW 12,000 FEET WITH NO
SIGNIFICANT WEATHER AND/OR OBSTRUCTIONS TO VISIBILITY.

TXZ118-119-262100-
DALLAS/FORT WORTH METROPLEX

CITY           SKY/WX    TMP DP  RH WIND       PRES   REMARKS
DFW AIRPORT    LGT RAIN  64  59  83 NE14      30.16F
DALLAS LOVE    CLOUDY    66  58  75 N15G23    30.16F
FTW MEACHAM    CLOUDY    65  59  81 NE13      30.16F
DAL-EXECUTIVE  LGT RAIN  65  61  87 N13G20    30.14F FOG
FTW-ALLIANCE   LGT RAIN  64  60  87 NE6       30.17F
FTW-NAS-JRB    CLOUDY    66  58  75 NE13      30.17F
FTW-SPINKS     PTSUNNY   66  57  72 N13G23    30.18
ARLINGTON      CLOUDY    65  58  78 N18G25    30.15F
GRAND PRAIRIE  CLOUDY    64  57  77 N18G28    30.17F
ADDISON        CLOUDY    64  57  77 N15G25    30.17S
MESQUITE       CLOUDY    64  63  94 NW12      30.14F
LANCASTER      CLOUDY    66  60  79 N13G21    30.15F
$$

TXZ091>094-102>105-117-120-121-131>134-262100-
NORTH CENTRAL TEXAS

CITY           SKY/WX    TMP DP  RH WIND       PRES   REMARKS
SHRMAN/DENISON NOT AVBL
GAINESVILLE      N/A     74  53  47 NE13      30.18F
BRIDGEPORT     CLOUDY    76  56  50 N13G18    30.19F
DECATUR        PTSUNNY   75  52  44 NE9G18    30.17F
DENTON         CLOUDY    69  61  75 VRB3      30.16F
MCKINNEY       LGT RAIN  62  60  93 N16       30.16F
GREENVILLE       N/A     64  61  88 N10G17    30.14F
ROCKWALL       CLOUDY    64  62  92 N15       30.13F
TERRELL        CLOUDY    67  60  78 N10       30.13F
WAXAHACHIE     CLOUDY    65  60  83 N14       30.15F
CLEBURNE       CLOUDY    66  61  82 N22G30    30.17F
$$

TXZ083>090-098>101-113>116-127>130-139>142-154-155-262100-
WESTERN NORTH TEXAS

CITY           SKY/WX    TMP DP  RH WIND       PRES   REMARKS
WICHITA FALLS  MOSUNNY   75  42  30 N18       30.20F
WF-KICKAPOO    CLOUDY    76  40  27 N16G22    30.22F
VERNON         MOSUNNY   76  31  19 NE14G23   30.25F
ABILENE        CLOUDY    70  53  54 NE14G21   30.22F
ABILENE-DYESS  PTSUNNY   71  50  46 NE14      30.21F
CISCO          CLOUDY    70  55  60 N10G20    30.21F
MINERAL WELLS  CLOUDY    74  54  49 N13       30.16F
STEPHENVILLE   CLOUDY    67  58  73 N8        30.20F
COMANCHE       CLOUDY    65  60  84 NE8       30.19F
BROWNWOOD      CLOUDY    68  57  68 N12       30.17F
COLEMAN        CLOUDY    68  55  62 NE13      30.20F
$$

TXZ143>147-156>162-174-175-262100-
CENTRAL TEXAS

CITY           SKY/WX    TMP DP  RH WIND       PRES   REMARKS
WACO           CLOUDY    69  61  75 N14G21    30.12F
WACO-MCGREGOR  CLOUDY    68  61  78 N16       30.13F
HILLSBORO      CLOUDY    66  59  77 N14G20    30.14F
CORSICANA      CLOUDY    72  64  76 N9        30.11F
MEXIA          CLOUDY    70  66  87 NW10G16   30.09F
HEARNE         CLOUDY    73  69  86 NW15G21   30.08F
CAMERON        CLOUDY    72  67  84 N13       30.09F
TEMPLE         CLOUDY    70  63  78 N14       30.12F
KILLEEN        CLOUDY    69  62  77 N16       30.11F
KILLEEN-SKYLRK CLOUDY    69  62  78 N16       30.12F
FORT HOOD      CLOUDY    68  61  79 N14       30.10F
HAMILTON       CLOUDY    66  59  79 N13       30.17F
$$

TXZ095>097-106>112-122>126-135>138-148>153-164>167-262100-
EAST TEXAS

CITY           SKY/WX    TMP DP  RH WIND       PRES   REMARKS
PARIS          CLOUDY    64  61  88 N12       30.15S
SULPHUR SPRNGS CLOUDY    71  62  72 N14       30.14F
MOUNT PLEASANT CLOUDY    78  62  57 NE10G17   30.10F
GILMER         CLOUDY    76  67  73 N7        30.08S
MINEOLA        CLOUDY    72  66  83 N7        30.10S
TYLER          CLOUDY    75  68  78 N9        30.08F
LONGVIEW       CLOUDY    77  69  76 NE8       30.05F
ATHENS         CLOUDY    72  68  88 N10       30.07F
PALESTINE      CLOUDY    74  71  89 N7        30.08F
JACKSONVILLE   CLOUDY    75  72  91 N5        30.08F
HENDERSON      CLOUDY    77  70  77 NE10      30.07S
CENTER         PTCLDY    87  74  65 N12       30.02F HX  95
NACOGDOCHES    CLOUDY    82  73  74 N9        30.00F
LUFKIN         CLOUDY    83  73  72 NW12      30.00F
$$

SUPPLEMENTAL OBSERVATIONS (CENTRAL)

CITY           SKY/WX    TMP DP  RH WIND       PRES   REMARKS
$$

SUPPLEMENTAL OBSERVATIONS (WEST)

CITY           SKY/WX    TMP DP  RH WIND       PRES   REMARKS
$$

SUPPLEMENTAL OBSERVATIONS (EAST)

CITY           SKY/WX    TMP DP  RH WIND       PRES   REMARKS
$$

SUPPLEMENTAL OBSERVATIONS ARE A COLLECTION OF AUTOMATED INSTRUMENTS
THAT ARE MAINTAINED BY A VARIETY OF FEDERAL AND STATE AGENCIES.
CERTAIN ELEMENTS...SUCH AS HUMIDITY VALUES AND SUSTAINED WIND
SPEEDS...MAY BE APPROXIMATED.





USA.gov is the U.S. government's official web portal to all federal, state and local government web resources and services.